Change the Weather History Date:

Saturday, November 12, 2011

  Actual Average Record
Temperature  
Mean Temperature 48 °F 39 °F  
Max Temperature 60 °F 46 °F 69 °F (1911)
Min Temperature 35 °F 32 °F 10 °F (1950)
Degree Days  
Heating Degree Days 17 26  
Month to date heating degree days 246 291  
Since 1 July heating degree days 867 1078  
Moisture  
Dew Point 35 °F    
Average Humidity 64    
Maximum Humidity 85    
Minimum Humidity 42    
Precipitation  
Precipitation 0.00 in 0.09 in 0.85 in (1982)
Month to date precipitation 2.37 1.11  
Year to date precipitation 24.91 28.97  
Sea Level Pressure  
Sea Level Pressure 29.66 in    
Wind  
Wind Speed 6 mph (SSW)    
Max Wind Speed 13 mph    
Max Gust Speed 24 mph    
Visibility 10 miles    
Events      
T = Trace of Precipitation, MM = Missing Value Source: NWS Daily Summary

Daily Weather History Graph

Daily Weather History Graph

Search for Another Location

Airport or City:

Trip Planner

Search our weather history database for the weather conditions in past years. The results will help you decide how hot, cold, wet, or windy it might be!

Date:

Astronomy

Nov. 12, 2011 Rise Set
Actual Time 7:34 AM EST 5:17 PM EST
Civil Twilight 7:03 AM EST 5:48 PM EST
Nautical Twilight 6:28 AM EST 6:24 PM EST
Astronomical Twilight 5:53 AM EST 6:58 PM EST
Moon 6:28 PM EST (11/12) 9:21 AM EST (11/12)
Length of Visible Light 10h 45m
Length of Day
9h 42m
Full, 97% of the Moon is Illuminated
Nov 12
Full
Nov 18
Last Quarter
Nov 25
New
Dec 2
First Quarter
Dec 10
Full

Hourly Weather History & Observations

Time (EST) Temp. Windchill Dew Point Humidity Pressure Visibility Wind Dir Wind Speed Gust Speed Precip Events Conditions
12:53 AM 39.9 °F 35.8 °F 32.0 °F 73% 29.67 in 10.0 mi SW 5.8 mph - N/A   Partly Cloudy
1:53 AM 39.0 °F 36.8 °F 32.0 °F 76% 29.68 in 10.0 mi SSW 3.5 mph - N/A   Clear
2:53 AM 37.9 °F 33.5 °F 32.0 °F 79% 29.67 in 10.0 mi SW 5.8 mph - N/A   Clear
3:53 AM 37.9 °F 33.5 °F 32.0 °F 79% 29.66 in 10.0 mi SW 5.8 mph - N/A   Clear
4:53 AM 41.0 °F 35.2 °F 34.0 °F 76% 29.66 in 10.0 mi WSW 9.2 mph - N/A   Clear
5:53 AM 39.9 °F 35.1 °F 34.0 °F 79% 29.67 in 10.0 mi SW 6.9 mph - N/A   Clear
6:53 AM 39.0 °F 34.8 °F 34.0 °F 82% 29.69 in 10.0 mi SW 5.8 mph - N/A   Clear
7:53 AM 37.4 °F 33.8 °F 33.8 °F 87% 29.68 in 10.0 mi South 4.6 mph - N/A   Partly Cloudy
8:53 AM 39.9 °F 36.7 °F 35.1 °F 83% 29.71 in 10.0 mi SSW 4.6 mph - N/A   Partly Cloudy
9:53 AM 44.6 °F 40.7 °F 35.6 °F 71% 29.71 in 10.0 mi Variable 6.9 mph - N/A   Partly Cloudy
10:53 AM 50.0 °F - 35.1 °F 57% 29.72 in 10.0 mi SSW 6.9 mph - N/A   Partly Cloudy
11:53 AM 53.1 °F - 34.0 °F 48% 29.70 in 10.0 mi Variable 5.8 mph - N/A   Partly Cloudy
12:53 PM 55.0 °F - 34.0 °F 45% 29.69 in 10.0 mi SSW 9.2 mph - N/A   Scattered Clouds
1:53 PM 57.9 °F - 36.0 °F 44% 29.69 in 10.0 mi SSW 6.9 mph - N/A   Scattered Clouds
2:53 PM 60.1 °F - 37.9 °F 44% 29.68 in 10.0 mi Variable 5.8 mph - N/A   Partly Cloudy
3:53 PM 60.1 °F - 37.0 °F 42% 29.68 in 10.0 mi SSW 9.2 mph - N/A   Scattered Clouds
4:53 PM 57.0 °F - 36.0 °F 45% 29.68 in 10.0 mi SSW 4.6 mph - N/A   Mostly Cloudy
5:53 PM 54.0 °F - 36.0 °F 51% 29.68 in 10.0 mi Variable 3.5 mph - N/A   Mostly Cloudy
6:53 PM 53.1 °F - 36.0 °F 52% 29.67 in 10.0 mi Variable 4.6 mph - N/A   Scattered Clouds
7:53 PM 52.0 °F - 36.0 °F 54% 29.64 in 10.0 mi Variable 4.6 mph - N/A   Mostly Cloudy
8:53 PM 51.8 °F - 35.6 °F 54% 29.61 in 10.0 mi Variable 3.5 mph - N/A   Overcast
9:53 PM 53.1 °F - 36.0 °F 52% 29.59 in 10.0 mi South 8.1 mph - N/A   Clear
10:53 PM 55.0 °F - 35.1 °F 47% 29.57 in 10.0 mi SSW 8.1 mph 21.9 mph N/A   Clear
11:53 PM 54.0 °F - 36.0 °F 51% 29.55 in 10.0 mi Variable 5.8 mph 20.7 mph N/A   Clear